Tracking 22836 objects as of 16-Apr-2021
HD Live streaming from Space Station
objects crossing your sky now

ARABSAT 2B

Track ARABSAT 2B now!
ARABSAT 2B is classified as:


NORAD ID: 24652
Int'l Code: 1996-063A
Perigee: 36,012.4 km
Apogee: 36,057.5 km
Inclination: 6.5 °
Period: 1,448.4 minutes
Semi major axis: 42405 km
RCS: 3.8888 m2 (large)
Launch date: November 13, 1996
Source: Arab Satellite Communications Organization (AB)
Launch site: FRENCH GUIANA (FRGUI)

Second generation; radio and tv communications to Middle East.
aabbcc
Your satellite tracking list
Your tracking list is empty




NASA's NSSDC Master Catalog

Two Line Element Set (TLE):
1 24652U 96063A   21105.64263058 -.00000236  00000-0  00000-0 0  9998
2 24652   6.5171  63.3767 0005316 344.7879 189.5273  0.99417356 89680
Source of the keplerian elements: AFSPC